Perry, FL

10:18 PM EST on February 12, 2016 (GMT -0500)
Perry

Weather History for K40J - July, 2012

Change the Weather History Date:

Tuesday, July 24, 2012

  Actual Average (KCTY) Record (KCTY)
Temperature  
Mean Temperature 80 °F 82 °F  
Max Temperature 88 °F 91 °F 96 °F (2005)
Min Temperature 73 °F 72 °F 70 °F (2008)
Degree Days  
Heating Degree Days 0 0  
Month to date heating degree days 0  
Since 1 June heating degree days 0  
Since 1 July heating degree days 0  
Cooling Degree Days 16 17  
Month to date cooling degree days 392  
Year to date cooling degree days 1318  
Since 1 June cooling degree days 839  
Growing Degree Days 30 (Base 50)    
Moisture  
Dew Point 73 °F    
Average Humidity 81    
Maximum Humidity 93    
Minimum Humidity 61    
Precipitation  
Precipitation 1.37 in 0.20 in 2.14 in (2006)
Month to date precipitation 4.23  
Year to date precipitation 26.49  
Sea Level Pressure  
Sea Level Pressure 30.06 in    
Wind  
Wind Speed 5 mph (SSE)    
Max Wind Speed 10 mph    
Max Gust Speed -    
T = Trace of Precipitation, MM = Missing Value Source: NWS Daily Summary

Daily Weather History Graph

Daily Weather History Graph

Search for Another Location

Airport or City:

Trip Planner

Search our weather history database for the weather conditions in past years. The results will help you decide how hot, cold, wet, or windy it might be!

Date:

Astronomy

Jul. 24, 2012 Rise Set
Actual Time 6:48 AM EDT 8:32 PM EDT
Civil Twilight 6:22 AM EDT 8:58 PM EDT
Nautical Twilight 5:50 AM EDT 9:30 PM EDT
Astronomical Twilight 5:17 AM EDT 10:04 PM EDT
Moon 12:13 PM EDT (7/24) 11:54 PM EDT (7/24)
Length of Visible Light 14h 36m
Length of Day
13h 43m
Waxing Crescent, 31% of the Moon is Illuminated
Jul 24
Waxing Crescent
Jul 26
First Quarter
Aug 1
Full
Aug 9
Last Quarter
Aug 17
New

Hourly Weather History & Observations

Time (EDT) Temp. Heat Index Dew Point Humidity Pressure Visibility Wind Dir Wind Speed Gust Speed Precip Events Conditions
12:53 AM 73.9 °F - 71.1 °F 91% 30.11 in - SE 6.9 mph - N/A   Unknown
1:53 AM 75.0 °F - 71.1 °F 87% 30.10 in - Calm Calm - N/A   Unknown
2:53 AM 73.9 °F - 71.1 °F 91% 30.09 in - SE 5.8 mph - N/A   Unknown
3:53 AM 73.9 °F - 71.1 °F 91% 30.09 in - ESE 3.5 mph - N/A   Unknown
4:53 AM 73.9 °F - 71.1 °F 91% 30.09 in - SE 4.6 mph - N/A   Unknown
5:53 AM 73.9 °F - 71.1 °F 91% 30.09 in - ESE 3.5 mph - N/A   Unknown
6:53 AM 73.0 °F - 71.1 °F 93% 30.11 in - ESE 4.6 mph - N/A   Unknown
7:53 AM 75.0 °F - 71.1 °F 87% 30.11 in - East 4.6 mph - N/A   Unknown
8:53 AM 78.1 °F - 73.0 °F 84% 30.11 in - SE 4.6 mph - N/A   Unknown
9:53 AM 82.9 °F 89.4 °F 73.9 °F 74% 30.11 in - Calm Calm - N/A   Unknown
10:53 AM 84.0 °F 90.2 °F 73.0 °F 69% 30.09 in - Calm Calm - N/A   Unknown
11:53 AM 84.9 °F 91.4 °F 73.0 °F 67% 30.10 in - North 3.5 mph - N/A   Unknown
12:53 PM 78.1 °F - 73.9 °F 87% 30.09 in - SSE 3.5 mph - 0.44 in   Unknown
1:53 PM 79.0 °F - 75.0 °F 88% 30.07 in - East 5.8 mph - 0.22 in   Unknown
2:53 PM 84.0 °F 93.7 °F 77.0 °F 79% 30.04 in - SW 5.8 mph - 0.01 in   Unknown
3:53 PM 86.0 °F 92.2 °F 72.0 °F 63% 30.02 in - SSW 8.1 mph - N/A   Unknown
4:53 PM 88.0 °F 96.5 °F 73.9 °F 63% 30.00 in - SW 8.1 mph - N/A   Unknown
5:53 PM 88.0 °F 95.6 °F 73.0 °F 61% 29.99 in - WSW 8.1 mph - N/A   Unknown
6:53 PM 86.0 °F 93.0 °F 73.0 °F 65% 29.99 in - SSW 10.4 mph - N/A   Unknown
7:53 PM 82.9 °F 89.4 °F 73.9 °F 74% 30.00 in - South 5.8 mph - N/A   Unknown
8:53 PM 81.0 °F 86.2 °F 73.9 °F 79% 30.03 in - SSW 3.5 mph - N/A   Unknown
9:53 PM 79.0 °F - 73.9 °F 84% 30.01 in - SSE 4.6 mph - N/A   Unknown
10:53 PM 77.0 °F - 73.0 °F 88% 30.01 in - SSE 4.6 mph - N/A   Unknown
11:53 PM 77.0 °F - 73.0 °F 88% 30.01 in - Calm Calm - 0.70 in   Unknown